Spokane Felts, WA
on Wednesday, November 28, 2012

Wednesday
Previous Day Next Day
Daily Summary
 ActualAverageRecord
Temperature
Mean Temperature °F 33°F  
Max Temperature 39°F 39°F 51°F (1997)
Min Temperature 27°F 27°F 14°F (2007)
Degree Days
Heating Degree Days 32 32  
Month to date heating degree days 674 770  
Since 1 July heating degree days 1233 1507  
Cooling Degree Days 0 0  
Month to date cooling degree days 0 0  
Year to date cooling degree days 509 406  
Moisture
Dew Point 29°F   
Average Humidity 78    
Maximum Humidity 92    
Minimum Humidity 64    
Precipitation
Precipitation 0.10 in 0.08 in 0.49 in (2001)
Month to date precipitation 2.88 2.08  
Year to date precipitation 18.47 15.03  
Wind
Wind Speed 1 mph   
Max Wind Speed 9 mph   
Max Gust Speed 12 mph   
Visibility 9 miles   
Events Rain   

Key: T is trace of precipitation, MM is missing value
Source: NWS Daily Summary
Time(PST)TemperatureDew PointHumidity Pressure Visibility Wind DirectionWind SpeedGust SpeedPrecipitationEvents Conditions
12:53 AM 32.0°F 27.0°F 82% 30.12 in 10.0 miles Calm Calm - N/A   Clear
1:53 AM 32.0°F 27.0°F 82% 30.12 in 10.0 miles Calm Calm - N/A   Clear
2:53 AM 30.9°F 27.0°F 85% 30.11 in 10.0 miles Calm Calm - N/A   Clear
3:53 AM 30.9°F 27.0°F 85% 30.09 in 10.0 miles Calm Calm - N/A   Clear
4:53 AM 28.9°F 25.0°F 85% 30.08 in 10.0 miles ESE 3.5 mph - N/A   Clear
5:53 AM 27.0°F 24.1°F 89% 30.08 in 10.0 miles Calm Calm - N/A   Clear
6:53 AM 27.0°F 24.1°F 89% 30.06 in 9.0 miles Calm Calm - N/A   Clear
7:53 AM 28.0°F 25.0°F 88% 30.06 in 6.0 miles Calm Calm - N/A   Clear
8:53 AM 30.9°F 28.0°F 89% 30.04 in 10.0 miles Calm Calm - N/A   Clear
9:53 AM 35.1°F 27.0°F 72% 30.01 in 10.0 miles Calm Calm - N/A   Clear
10:53 AM 36.0°F 28.0°F 73% 29.97 in 10.0 miles Calm Calm - N/A   Clear
11:53 AM 37.0°F 28.9°F 73% 29.94 in 10.0 miles Calm Calm - N/A   Clear
12:53 PM 39.0°F 28.0°F 65% 29.91 in 10.0 miles Calm Calm - N/A   Clear
1:53 PM 39.0°F 28.9°F 67% 29.88 in 10.0 miles Calm Calm - N/A   Partly Cloudy
2:53 PM 39.0°F 28.9°F 67% 29.86 in 10.0 miles Calm Calm - N/A   Overcast
3:53 PM 37.9°F 28.9°F 70% 29.85 in 10.0 miles WSW 3.5 mph - N/A   Overcast
4:53 PM 37.9°F 30.0°F 73% 29.86 in 10.0 miles West 3.5 mph - N/A   Overcast
5:53 PM 37.9°F 30.9°F 76% 29.88 in 10.0 miles Calm Calm - N/A   Overcast
6:53 PM 37.0°F 33.1°F 86% 29.87 in 5.0 miles ENE 6.9 mph - 0.03 in Rain Light Rain
7:53 PM 37.9°F 32.0°F 79% 29.87 in 10.0 miles SE 4.6 mph - 0.03 in Rain Light Rain
8:53 PM 37.0°F 33.1°F 86% 29.87 in 8.0 miles Calm Calm - 0.02 in Rain Light Rain
9:53 PM 37.0°F 34.0°F 89% 29.87 in 6.0 miles NW 3.5 mph - 0.02 in Rain Light Rain
10:53 PM 37.0°F 34.0°F 89% 29.87 in 8.0 miles Calm Calm - 0.00 in   Overcast
11:53 PM 37.9°F 35.1°F 89% 29.89 in 7.0 miles Calm Calm - N/A   Overcast
Moon Phase
Nov. 28 Dec. 06 Dec. 13 Dec. 20 Dec. 28
Sunrise:07:13 AM (PST) Moon Rise:04:18 PM (PST)
Sunset:04:00 PM (PST) Moon Set:07:15 AM (PST)

Copyright © 2014 The Weather Underground, Inc.